Flag for Greece Weather past 2 weeks in Corfu, Greece

Now
63 °F

Passing clouds.


Feels Like: 63 °F
Forecast: 65 / 81 °F
Wind: No wind

Location: Kerkyra Airport

Current Time: Sep 18, 2014 at 6:48:33 AM

Latest Report: Sep 18, 2014 at 5:50 AM


Visibility: N/A

Pressure: 29.95 "Hg

Humidity: 94%

Dew point: 61 °F

Location of CorfuLocation

Historic Weather in Corfu — Graph

°F

Corfu temperature yesterday

Maximum temperature yesterday: 81 °F (at 3:20 PM)
Minimum temperature yesterday: 64 °F (at 6:50 AM)
Average temperature yesterday: 72 °F

Past Weeks' High & Low Weather Summary

 TemperatureHumidityPressure
High84 °F (Sep 8, 3:50 PM)100% (Sep 3, 5:20 AM)29.98 "Hg (Sep 3, 5:20 AM)
Low61 °F (Sep 3, 6:50 AM)42% (Sep 15, 2:50 PM)29.65 "Hg (Sep 3, 5:20 AM)
Average73 °F79%29.88 "Hg
* Reported Sep 3 5:20 AM — Sep 18 5:20 AM, Corfu, Weather by CustomWeather, © 2014

Note: Actual official high and low records may vary slightly from our data, if they occured in-between our weather recording intervals... More about our weather records

Advertising

Corfu weather history for previous 24 hours

 ConditionsComfort  
Time TempWeatherWind HumidityBarometerVisibility
5:20 AM
Sep 18
63 °FPassing clouds.No wind94%29.95 "HgN/A
4:50 AM63 °FPassing clouds.No wind94%29.95 "HgN/A
4:20 AM63 °FPassing clouds.No wind94%29.95 "HgN/A
3:50 AM63 °FPassing clouds.No wind94%29.95 "HgN/A
3:20 AM63 °FPassing clouds.3 mph94%29.95 "HgN/A
2:50 AM63 °FPassing clouds.3 mph94%29.95 "HgN/A
2:20 AM64 °FPassing clouds.3 mph88%29.95 "HgN/A
1:50 AM64 °FPassing clouds.3 mph88%29.95 "HgN/A
1:20 AM64 °FPassing clouds.3 mph88%29.95 "HgN/A
12:50 AM64 °FPassing clouds.5 mph88%29.95 "HgN/A
12:20 AM66 °FPassing clouds.3 mph88%29.92 "HgN/A
11:50 PM
Sep 17
66 °FPassing clouds.3 mph88%29.92 "HgN/A
11:20 PM68 °FPassing clouds.3 mph88%29.92 "HgN/A
10:50 PM68 °FPassing clouds.No wind88%29.92 "HgN/A
10:20 PM70 °FPassing clouds.No wind83%29.92 "HgN/A
9:50 PM70 °FPassing clouds.No wind83%29.92 "HgN/A
9:20 PM70 °FPassing clouds.3 mph78%29.92 "HgN/A
8:50 PM72 °FPassing clouds.2 mph73%29.92 "HgN/A
8:20 PM73 °FPassing clouds.5 mph69%29.89 "HgN/A
7:50 PM75 °FPassing clouds.6 mph65%29.89 "HgN/A
7:20 PM75 °FScattered clouds.8 mph65%29.89 "HgN/A
6:50 PM77 °FScattered clouds.12 mph61%29.89 "HgN/A
6:20 PM79 °FPartly sunny.12 mph58%29.89 "HgN/A
5:50 PM79 °FPartly sunny.13 mph58%29.89 "HgN/A
5:20 PM77 °FPartly sunny.6 mph61%29.89 "HgN/A
4:50 PM79 °FPartly sunny.5 mph58%29.89 "HgN/A
4:20 PM81 °FScattered clouds.5 mph54%29.89 "HgN/A
3:50 PM81 °FScattered clouds.6 mph54%29.89 "HgN/A
3:20 PM81 °FScattered clouds.6 mph58%29.89 "HgN/A
2:50 PM79 °FScattered clouds.6 mph61%29.89 "HgN/A
2:20 PM79 °FScattered clouds.6 mph61%29.89 "HgN/A
1:50 PM79 °FScattered clouds.7 mph61%29.89 "HgN/A
1:20 PM77 °FScattered clouds.8 mph65%29.92 "HgN/A
12:50 PM77 °FPassing clouds.7 mph65%29.92 "HgN/A
12:20 PM75 °FPassing clouds.7 mph69%29.92 "HgN/A
11:50 AM75 °FPassing clouds.5 mph69%29.92 "HgN/A
11:20 AM75 °FPassing clouds.3 mph65%29.92 "HgN/A
10:50 AM75 °FPassing clouds.3 mph65%29.92 "HgN/A
10:20 AM73 °FSunny.No wind65%29.92 "Hg10 mi
9:50 AM72 °FSunny.No wind69%29.92 "Hg10 mi
9:20 AM70 °FSunny.No wind78%29.89 "Hg10 mi
8:50 AM68 °FSunny.3 mph83%29.89 "Hg10 mi
8:20 AM66 °FClear.No wind83%29.89 "Hg10 mi
7:50 AM64 °FClear.No wind88%29.89 "Hg10 mi
7:20 AM64 °FPassing clouds.No wind88%29.89 "HgN/A
6:50 AM64 °FPassing clouds.No wind88%29.89 "HgN/A
6:20 AM66 °FPassing clouds.No wind88%29.89 "HgN/A
Weather by CustomWeather, © 2014

See weather overviewHow to use our weather pages